Main page
METAR-TAF:

METAR-TAF

Airports :

Valencia, Spain

latitude: 39-37-26N, longitude: 0-28-26W, elevation: 127 m

Current weather observation

The report was made 54 minutes ago, at 09:00 UTC
Wind 1 kt from variable directions
Temperature 20°C
Humidity 53%
Pressure 1025 hPa
Visibility: 4000 m
haze

METAR: LEBT 220900Z AUTO VRB01KT 4000 HZ BKN028/// 20/10 Q1025

Time: 11:54 (09:54 UTC)


TAF: missing

Weather observations and forecasts of more than 4000 airports (METAR and TAF reports).

The available stations are represented by yellow and red dots on the map.

Hover mouse over dot to see the name of the station.

Then click to see weather observations and forecasts.

To change the map : click on the green buttons with a black cross to zoom in, on the green button with a dash to zoom out, or on the green arrows for adjacent maps.


METAR-TAF: